Time,TemperatureF,DewpointF,PressureIn,WindDirection,WindDirectionDegrees,WindSpeedMPH,WindSpeedGustMPH,Humidity,HourlyPrecipIn,Conditions,Clouds,dailyrainin,SoftwareType,DateUTC
2013-01-23 00:02:00,47.1,37.0,30.01,North,0,0.0,1.0,68,0.00,,,0.00,meteohub,2013-01-23 08:02:00,
2013-01-23 00:07:00,47.1,37.0,30.01,North,0,0.0,1.0,68,0.00,,,0.00,meteohub,2013-01-23 08:07:00,
2013-01-23 00:12:00,47.1,37.0,30.01,North,0,1.0,2.0,68,0.00,,,0.00,meteohub,2013-01-23 08:12:00,
2013-01-23 00:17:00,47.1,37.4,30.01,NE,45,0.0,2.0,69,0.00,,,0.00,meteohub,2013-01-23 08:17:00,
2013-01-23 00:22:00,47.1,37.0,30.01,NE,45,1.0,2.0,68,0.00,,,0.00,meteohub,2013-01-23 08:22:00,
2013-01-23 00:27:00,47.1,37.4,30.01,NE,45,2.0,2.0,69,0.00,,,0.00,meteohub,2013-01-23 08:27:00,
2013-01-23 00:33:00,47.1,37.4,30.01,NE,45,2.0,2.0,69,0.00,,,0.00,meteohub,2013-01-23 08:33:00,
2013-01-23 00:38:00,47.1,37.0,30.01,North,0,1.0,2.0,68,0.00,,,0.00,meteohub,2013-01-23 08:38:00,
2013-01-23 00:43:00,47.1,37.4,30.01,North,0,2.0,2.0,69,0.00,,,0.00,meteohub,2013-01-23 08:43:00,
2013-01-23 00:48:00,47.1,37.4,30.00,North,0,1.0,2.0,69,0.00,,,0.00,meteohub,2013-01-23 08:48:00,
2013-01-23 00:54:00,47.1,37.4,30.00,NE,45,2.0,2.0,69,0.00,,,0.00,meteohub,2013-01-23 08:54:00,
2013-01-23 00:59:00,47.1,37.4,30.00,NE,45,1.0,2.0,69,0.00,,,0.00,meteohub,2013-01-23 08:59:00,
2013-01-23 01:04:00,47.1,37.4,30.01,North,0,2.0,2.0,69,0.00,,,0.00,meteohub,2013-01-23 09:04:00,
2013-01-23 01:09:00,47.1,37.0,30.00,North,0,2.0,2.0,68,0.00,,,0.00,meteohub,2013-01-23 09:09:00,
2013-01-23 01:14:00,47.3,37.6,30.00,East,90,2.0,2.0,69,0.00,,,0.00,meteohub,2013-01-23 09:14:00,
2013-01-23 01:19:00,47.3,37.2,30.00,NE,45,1.0,2.0,68,0.00,,,0.00,meteohub,2013-01-23 09:19:00,
2013-01-23 01:25:00,47.3,37.2,30.00,North,0,1.0,2.0,68,0.00,,,0.00,meteohub,2013-01-23 09:25:00,
2013-01-23 01:30:00,47.1,37.4,30.00,North,0,2.0,2.0,69,0.00,,,0.00,meteohub,2013-01-23 09:30:00,
2013-01-23 01:35:00,46.9,37.2,30.00,North,0,2.0,2.0,69,0.00,,,0.00,meteohub,2013-01-23 09:35:00,
2013-01-23 01:40:00,46.9,37.2,30.01,North,0,2.0,2.0,69,0.00,,,0.00,meteohub,2013-01-23 09:40:00,
2013-01-23 01:46:00,46.8,37.2,30.01,North,0,2.0,2.0,69,0.00,,,0.00,meteohub,2013-01-23 09:46:00,
2013-01-23 01:51:00,46.8,37.6,30.01,North,0,1.0,2.0,70,0.00,,,0.00,meteohub,2013-01-23 09:51:00,
2013-01-23 01:56:00,46.8,37.6,30.01,North,0,2.0,2.0,70,0.00,,,0.00,meteohub,2013-01-23 09:56:00,
2013-01-23 02:02:00,46.6,37.4,30.00,North,0,2.0,2.0,70,0.00,,,0.00,meteohub,2013-01-23 10:02:00,
2013-01-23 02:07:00,46.6,37.4,30.00,North,0,2.0,2.0,70,0.00,,,0.00,meteohub,2013-01-23 10:07:00,
2013-01-23 02:12:00,46.4,37.2,30.00,North,0,2.0,2.0,70,0.00,,,0.00,meteohub,2013-01-23 10:12:00,
2013-01-23 02:17:00,46.4,37.2,30.01,North,0,2.0,2.0,70,0.00,,,0.00,meteohub,2013-01-23 10:17:00,
2013-01-23 02:22:00,46.4,37.2,30.00,North,0,2.0,2.0,70,0.00,,,0.00,meteohub,2013-01-23 10:22:00,
2013-01-23 02:27:00,46.6,37.8,30.00,NE,45,2.0,2.0,71,0.00,,,0.00,meteohub,2013-01-23 10:27:00,
2013-01-23 02:32:00,46.6,37.8,30.00,NE,45,2.0,3.0,71,0.00,,,0.00,meteohub,2013-01-23 10:32:00,
2013-01-23 02:37:00,46.6,37.8,29.99,NE,45,1.0,3.0,71,0.00,,,0.00,meteohub,2013-01-23 10:37:00,
2013-01-23 02:43:00,46.6,37.8,29.99,NE,45,2.0,3.0,71,0.00,,,0.00,meteohub,2013-01-23 10:43:00,
2013-01-23 02:48:00,46.8,37.9,29.98,North,0,2.0,3.0,71,0.00,,,0.00,meteohub,2013-01-23 10:48:00,
2013-01-23 02:53:00,46.9,38.1,29.99,East,90,2.0,2.0,71,0.00,,,0.00,meteohub,2013-01-23 10:53:00,
2013-01-23 02:58:00,47.1,38.1,29.98,NE,45,2.0,3.0,71,0.00,,,0.00,meteohub,2013-01-23 10:58:00,
2013-01-23 03:03:00,47.3,38.3,29.99,SW,225,2.0,4.0,71,0.00,,,0.00,meteohub,2013-01-23 11:03:00,
2013-01-23 03:08:00,47.3,37.9,29.98,NE,45,2.0,4.0,70,0.00,,,0.00,meteohub,2013-01-23 11:08:00,
2013-01-23 03:14:00,47.3,37.9,29.98,North,0,2.0,4.0,70,0.00,,,0.00,meteohub,2013-01-23 11:14:00,
2013-01-23 03:19:00,47.1,38.1,29.98,North,0,2.0,2.0,71,0.00,,,0.00,meteohub,2013-01-23 11:19:00,
2013-01-23 03:24:00,47.1,38.1,29.97,North,0,2.0,3.0,71,0.00,,,0.00,meteohub,2013-01-23 11:24:00,
2013-01-23 03:29:00,47.1,38.1,29.97,North,0,3.0,3.0,71,0.00,,,0.00,meteohub,2013-01-23 11:29:00,
2013-01-23 03:34:00,47.1,38.1,29.96,NE,45,3.0,3.0,71,0.00,,,0.00,meteohub,2013-01-23 11:34:00,
2013-01-23 03:39:00,47.1,38.1,29.95,NE,45,2.0,4.0,71,0.00,,,0.00,meteohub,2013-01-23 11:39:00,
2013-01-23 03:44:00,47.1,38.1,29.96,NE,45,2.0,4.0,71,0.00,,,0.00,meteohub,2013-01-23 11:44:00,
2013-01-23 03:49:00,47.1,38.1,29.96,SE,135,0.0,4.0,71,0.00,,,0.00,meteohub,2013-01-23 11:49:00,
2013-01-23 03:54:00,47.1,38.1,29.97,SE,135,2.0,4.0,71,0.00,,,0.00,meteohub,2013-01-23 11:54:00,
2013-01-23 03:59:00,47.3,38.3,29.97,NE,45,2.0,2.0,71,0.00,,,0.00,meteohub,2013-01-23 11:59:00,
2013-01-23 04:04:00,47.3,38.3,29.97,North,0,2.0,2.0,71,0.00,,,0.00,meteohub,2013-01-23 12:04:00,
2013-01-23 04:10:00,47.1,38.5,29.98,NE,45,2.0,2.0,72,0.00,,,0.00,meteohub,2013-01-23 12:10:00,
2013-01-23 04:15:00,47.1,38.5,29.96,NE,45,2.0,2.0,72,0.00,,,0.00,meteohub,2013-01-23 12:15:00,
2013-01-23 04:21:00,47.1,38.5,29.96,North,0,2.0,4.0,72,0.00,,,0.00,meteohub,2013-01-23 12:21:00,
2013-01-23 04:27:00,47.1,38.1,29.96,North,0,2.0,4.0,71,0.00,,,0.00,meteohub,2013-01-23 12:27:00,
2013-01-23 04:32:00,47.1,38.1,29.96,North,0,2.0,4.0,71,0.00,,,0.00,meteohub,2013-01-23 12:32:00,
2013-01-23 04:37:00,46.9,38.3,29.96,North,0,2.0,2.0,72,0.00,,,0.00,meteohub,2013-01-23 12:37:00,
2013-01-23 04:42:00,46.9,38.3,29.95,North,0,1.0,2.0,72,0.00,,,0.00,meteohub,2013-01-23 12:42:00,
2013-01-23 04:47:00,46.9,38.3,29.95,North,0,1.0,2.0,72,0.00,,,0.00,meteohub,2013-01-23 12:47:00,
2013-01-23 04:53:00,46.9,38.3,29.96,North,0,2.0,2.0,72,0.00,,,0.00,meteohub,2013-01-23 12:53:00,
2013-01-23 04:58:00,46.9,38.3,29.95,North,0,2.0,2.0,72,0.00,,,0.00,meteohub,2013-01-23 12:58:00,
2013-01-23 05:03:00,46.9,38.3,29.96,NE,45,2.0,2.0,72,0.00,,,0.00,meteohub,2013-01-23 13:03:00,
2013-01-23 05:08:00,46.9,38.3,29.95,North,0,2.0,2.0,72,0.00,,,0.00,meteohub,2013-01-23 13:08:00,
2013-01-23 05:13:00,46.8,38.3,29.95,NE,45,3.0,3.0,72,0.00,,,0.00,meteohub,2013-01-23 13:13:00,
2013-01-23 05:19:00,46.8,38.3,29.95,NE,45,3.0,3.0,72,0.00,,,0.00,meteohub,2013-01-23 13:19:00,
2013-01-23 05:24:00,46.6,38.1,29.95,North,0,4.0,4.0,72,0.00,,,0.00,meteohub,2013-01-23 13:24:00,
2013-01-23 05:29:00,46.6,38.1,29.95,North,0,3.0,4.0,72,0.00,,,0.00,meteohub,2013-01-23 13:29:00,
2013-01-23 05:34:00,46.4,37.9,29.95,NE,45,2.0,4.0,72,0.00,,,0.00,meteohub,2013-01-23 13:34:00,
2013-01-23 05:39:00,46.2,38.1,29.94,North,0,2.0,4.0,73,0.00,,,0.00,meteohub,2013-01-23 13:39:00,
2013-01-23 05:44:00,46.2,38.1,29.95,NNE,23,2.0,3.0,73,0.00,,,0.00,meteohub,2013-01-23 13:44:00,
2013-01-23 05:49:00,46.0,37.9,29.94,NE,45,3.0,3.0,73,0.00,,,0.00,meteohub,2013-01-23 13:49:00,
2013-01-23 05:54:00,46.0,37.9,29.94,NE,45,2.0,3.0,73,0.00,,,0.00,meteohub,2013-01-23 13:54:00,
2013-01-23 05:59:00,45.9,37.8,29.95,North,0,2.0,3.0,73,0.00,,,0.00,meteohub,2013-01-23 13:59:00,
2013-01-23 06:04:00,45.9,37.8,29.95,North,0,2.0,3.0,73,0.00,,,0.00,meteohub,2013-01-23 14:04:00,
2013-01-23 06:09:00,46.0,37.9,29.95,North,0,2.0,2.0,73,0.00,,,0.00,meteohub,2013-01-23 14:09:00,
2013-01-23 06:14:00,46.2,38.1,29.95,NE,45,2.0,3.0,73,0.00,,,0.00,meteohub,2013-01-23 14:14:00,
2013-01-23 06:20:00,46.2,38.1,29.96,North,0,2.0,3.0,73,0.00,,,0.00,meteohub,2013-01-23 14:20:00,
2013-01-23 06:25:00,46.2,38.1,29.96,North,0,2.0,3.0,73,0.00,,,0.00,meteohub,2013-01-23 14:25:00,
2013-01-23 06:30:00,46.4,38.3,29.96,NE,45,2.0,2.0,73,0.00,,,0.00,meteohub,2013-01-23 14:30:00,
2013-01-23 06:35:00,46.6,38.1,29.96,East,90,3.0,3.0,72,0.00,,,0.00,meteohub,2013-01-23 14:35:00,
2013-01-23 06:40:00,46.6,38.1,29.97,North,0,2.0,3.0,72,0.00,,,0.00,meteohub,2013-01-23 14:40:00,
2013-01-23 06:45:00,46.8,37.9,29.98,North,0,2.0,3.0,71,0.00,,,0.00,meteohub,2013-01-23 14:45:00,
2013-01-23 06:50:00,46.9,38.1,29.96,NE,45,2.0,3.0,71,0.00,,,0.00,meteohub,2013-01-23 14:50:00,
2013-01-23 06:55:00,46.9,38.1,29.96,NE,45,1.0,2.0,71,0.00,,,0.00,meteohub,2013-01-23 14:55:00,
2013-01-23 07:00:00,46.8,37.9,29.96,North,0,1.0,2.0,71,0.00,,,0.00,meteohub,2013-01-23 15:00:00,
2013-01-23 07:05:00,46.8,37.9,29.97,North,0,2.0,2.0,71,0.00,,,0.00,meteohub,2013-01-23 15:05:00,
2013-01-23 07:10:00,46.8,37.9,29.96,North,0,2.0,2.0,71,0.00,,,0.00,meteohub,2013-01-23 15:10:00,
2013-01-23 07:15:00,46.8,37.9,29.96,NE,45,1.0,2.0,71,0.00,,,0.00,meteohub,2013-01-23 15:15:00,
2013-01-23 07:20:00,46.6,37.8,29.96,NE,45,1.0,2.0,71,0.00,,,0.00,meteohub,2013-01-23 15:20:00,
2013-01-23 07:25:00,46.6,37.8,29.96,North,0,1.0,2.0,71,0.00,,,0.00,meteohub,2013-01-23 15:25:00,
2013-01-23 07:31:00,46.6,37.8,29.96,NE,45,1.0,2.0,71,0.00,,,0.00,meteohub,2013-01-23 15:31:00,
2013-01-23 07:36:00,46.6,37.8,29.96,North,0,2.0,2.0,71,0.00,,,0.00,meteohub,2013-01-23 15:36:00,
2013-01-23 07:41:00,46.8,37.9,29.97,North,0,2.0,2.0,71,0.00,,,0.00,meteohub,2013-01-23 15:41:00,
2013-01-23 07:46:00,46.9,38.1,29.97,North,0,2.0,2.0,71,0.00,,,0.00,meteohub,2013-01-23 15:46:00,
2013-01-23 07:51:00,47.1,37.8,29.96,NE,45,2.0,2.0,70,0.00,,,0.00,meteohub,2013-01-23 15:51:00,
2013-01-23 07:56:00,47.3,37.9,29.96,North,0,2.0,2.0,70,0.00,,,0.00,meteohub,2013-01-23 15:56:00,
2013-01-23 08:01:00,47.3,37.9,29.97,North,0,2.0,2.0,70,0.00,,,0.00,meteohub,2013-01-23 16:01:00,
2013-01-23 08:06:00,47.3,37.9,29.97,North,0,2.0,2.0,70,0.00,,,0.00,meteohub,2013-01-23 16:06:00,
2013-01-23 08:11:00,47.3,37.9,29.96,North,0,2.0,2.0,70,0.00,,,0.00,meteohub,2013-01-23 16:11:00,
2013-01-23 08:16:00,47.1,37.8,29.96,North,0,2.0,2.0,70,0.00,,,0.00,meteohub,2013-01-23 16:16:00,
2013-01-23 08:21:00,47.3,37.9,29.97,North,0,2.0,2.0,70,0.00,,,0.00,meteohub,2013-01-23 16:21:00,
2013-01-23 08:26:00,47.3,37.9,29.97,NE,45,2.0,2.0,70,0.00,,,0.00,meteohub,2013-01-23 16:26:00,
2013-01-23 08:31:00,47.5,38.1,29.97,NE,45,2.0,2.0,70,0.00,,,0.00,meteohub,2013-01-23 16:31:00,
2013-01-23 08:36:00,47.7,38.3,29.98,NE,45,1.0,2.0,70,0.00,,,0.00,meteohub,2013-01-23 16:36:00,
2013-01-23 08:42:00,47.8,38.5,29.99,NE,45,2.0,2.0,70,0.00,,,0.00,meteohub,2013-01-23 16:42:00,
2013-01-23 08:47:00,48.0,38.7,29.99,North,0,1.0,2.0,70,0.00,,,0.00,meteohub,2013-01-23 16:47:00,
2013-01-23 08:52:00,48.2,38.8,29.99,North,0,1.0,2.0,70,0.00,,,0.00,meteohub,2013-01-23 16:52:00,
2013-01-23 08:57:00,48.4,39.0,29.99,NE,45,1.0,2.0,70,0.00,,,0.00,meteohub,2013-01-23 16:57:00,
2013-01-23 09:02:00,48.6,39.2,29.99,NE,45,1.0,2.0,70,0.00,,,0.00,meteohub,2013-01-23 17:02:00,
2013-01-23 09:07:00,48.7,39.4,29.99,NE,45,1.0,2.0,70,0.00,,,0.00,meteohub,2013-01-23 17:07:00,
2013-01-23 09:12:00,48.9,39.6,30.00,North,0,1.0,2.0,70,0.00,,,0.00,meteohub,2013-01-23 17:12:00,
2013-01-23 09:17:00,49.3,39.6,30.00,NE,45,2.0,2.0,69,0.00,,,0.00,meteohub,2013-01-23 17:17:00,
2013-01-23 09:22:00,49.6,39.6,29.99,NE,45,2.0,3.0,68,0.00,,,0.00,meteohub,2013-01-23 17:22:00,
2013-01-23 09:27:00,49.8,39.7,29.99,North,0,2.0,3.0,68,0.00,,,0.00,meteohub,2013-01-23 17:27:00,
2013-01-23 09:32:00,49.8,39.7,30.00,North,0,2.0,3.0,68,0.00,,,0.00,meteohub,2013-01-23 17:32:00,
2013-01-23 09:37:00,50.0,39.9,29.99,North,0,2.0,2.0,68,0.00,,,0.00,meteohub,2013-01-23 17:37:00,
2013-01-23 09:42:00,50.0,39.9,30.00,NE,45,1.0,2.0,68,0.00,,,0.00,meteohub,2013-01-23 17:42:00,
2013-01-23 09:47:00,50.2,40.1,30.00,East,90,2.0,2.0,68,0.00,,,0.00,meteohub,2013-01-23 17:47:00,
2013-01-23 09:52:00,50.2,40.1,29.99,North,0,2.0,2.0,68,0.00,,,0.00,meteohub,2013-01-23 17:52:00,
2013-01-23 09:57:00,50.4,39.7,30.01,NE,45,2.0,2.0,67,0.00,,,0.00,meteohub,2013-01-23 17:57:00,
2013-01-23 10:02:00,50.5,39.9,30.01,NE,45,2.0,2.0,67,0.00,,,0.00,meteohub,2013-01-23 18:02:00,
2013-01-23 10:07:00,50.7,40.1,30.01,NE,45,2.0,2.0,67,0.00,,,0.00,meteohub,2013-01-23 18:07:00,
2013-01-23 10:12:00,50.9,40.3,30.01,NE,45,2.0,2.0,67,0.00,,,0.00,meteohub,2013-01-23 18:12:00,
2013-01-23 10:17:00,50.9,40.3,30.01,East,90,2.0,3.0,67,0.00,,,0.00,meteohub,2013-01-23 18:17:00,
2013-01-23 10:22:00,51.1,40.5,30.01,East,90,1.0,3.0,67,0.00,,,0.00,meteohub,2013-01-23 18:22:00,
2013-01-23 10:27:00,51.3,40.6,30.01,East,90,2.0,3.0,67,0.00,,,0.00,meteohub,2013-01-23 18:27:00,
2013-01-23 10:32:00,51.4,40.8,30.01,East,90,2.0,2.0,67,0.00,,,0.00,meteohub,2013-01-23 18:32:00,
2013-01-23 10:37:00,51.6,40.6,30.01,NE,45,2.0,2.0,66,0.00,,,0.00,meteohub,2013-01-23 18:37:00,
2013-01-23 10:42:00,51.8,40.8,30.01,NE,45,2.0,2.0,66,0.00,,,0.00,meteohub,2013-01-23 18:42:00,
2013-01-23 10:47:00,51.8,40.8,30.01,NE,45,2.0,2.0,66,0.00,,,0.00,meteohub,2013-01-23 18:47:00,
2013-01-23 10:52:00,52.0,41.0,30.01,North,0,2.0,2.0,66,0.00,,,0.00,meteohub,2013-01-23 18:52:00,
2013-01-23 10:57:00,52.2,41.2,30.01,NE,45,4.0,4.0,66,0.00,,,0.00,meteohub,2013-01-23 18:57:00,
2013-01-23 11:02:00,52.3,41.4,30.01,North,0,2.0,4.0,66,0.00,,,0.00,meteohub,2013-01-23 19:02:00,
2013-01-23 11:07:00,52.3,41.4,30.01,North,0,2.0,4.0,66,0.00,,,0.00,meteohub,2013-01-23 19:07:00,
2013-01-23 11:12:00,52.3,41.4,30.01,North,0,2.0,4.0,66,0.00,,,0.00,meteohub,2013-01-23 19:12:00,
2013-01-23 11:17:00,52.5,41.5,30.01,North,0,2.0,4.0,66,0.00,,,0.00,meteohub,2013-01-23 19:17:00,
2013-01-23 11:22:00,52.5,41.5,30.01,North,0,1.0,4.0,66,0.00,,,0.00,meteohub,2013-01-23 19:22:00,
2013-01-23 11:27:00,52.9,41.9,30.01,North,0,2.0,4.0,66,0.00,,,0.00,meteohub,2013-01-23 19:27:00,
2013-01-23 11:32:00,52.7,41.7,30.01,NE,45,1.0,2.0,66,0.00,,,0.00,meteohub,2013-01-23 19:32:00,
2013-01-23 11:37:00,52.9,41.9,30.01,NE,45,2.0,2.0,66,0.00,,,0.00,meteohub,2013-01-23 19:37:00,
2013-01-23 11:42:00,53.1,42.1,30.01,North,0,1.0,2.0,66,0.00,,,0.00,meteohub,2013-01-23 19:42:00,
2013-01-23 11:47:00,53.2,42.3,30.01,South,180,1.0,2.0,66,0.00,,,0.00,meteohub,2013-01-23 19:47:00,
2013-01-23 11:52:00,53.4,42.3,30.02,North,0,1.0,2.0,66,0.00,,,0.00,meteohub,2013-01-23 19:52:00,
2013-01-23 11:57:00,53.6,42.4,30.01,NE,45,1.0,2.0,66,0.00,,,0.00,meteohub,2013-01-23 19:57:00,
2013-01-23 12:02:00,53.8,42.3,30.01,NE,45,1.0,2.0,65,0.00,,,0.00,meteohub,2013-01-23 20:02:00,
2013-01-23 12:07:00,53.8,42.3,30.01,North,0,2.0,2.0,65,0.00,,,0.00,meteohub,2013-01-23 20:07:00,
2013-01-23 12:12:00,54.0,42.4,30.01,North,0,1.0,2.0,65,0.00,,,0.00,meteohub,2013-01-23 20:12:00,
2013-01-23 12:17:00,54.0,42.8,30.01,NE,45,1.0,2.0,66,0.00,,,0.00,meteohub,2013-01-23 20:17:00,
2013-01-23 12:22:00,54.0,42.8,30.01,East,90,0.0,2.0,66,0.00,,,0.00,meteohub,2013-01-23 20:22:00,
2013-01-23 12:27:00,54.0,42.8,30.01,NE,45,2.0,2.0,66,0.00,,,0.00,meteohub,2013-01-23 20:27:00,
2013-01-23 12:32:00,54.0,43.3,30.01,NE,45,1.0,2.0,67,0.00,,,0.00,meteohub,2013-01-23 20:32:00,
2013-01-23 12:37:00,54.1,43.3,30.00,NE,45,2.0,2.0,67,0.00,,,0.00,meteohub,2013-01-23 20:37:00,
2013-01-23 12:42:00,54.1,43.3,30.01,North,0,1.0,2.0,67,0.00,,,0.00,meteohub,2013-01-23 20:42:00,
2013-01-23 12:47:00,54.1,43.3,30.01,East,90,1.0,2.0,67,0.00,,,0.00,meteohub,2013-01-23 20:47:00,
2013-01-23 12:52:00,54.3,44.1,30.01,East,90,2.0,2.0,68,0.00,,,0.00,meteohub,2013-01-23 20:52:00,
2013-01-23 12:57:00,54.3,44.1,30.00,East,90,0.0,2.0,68,0.00,,,0.00,meteohub,2013-01-23 20:57:00,
2013-01-23 13:02:00,54.3,44.1,30.00,East,90,1.0,2.0,68,0.00,,,0.00,meteohub,2013-01-23 21:02:00,
2013-01-23 13:07:00,54.3,44.1,30.00,North,0,2.0,2.0,68,0.00,,,0.00,meteohub,2013-01-23 21:07:00,
2013-01-23 13:12:00,54.3,43.5,30.00,NW,315,1.0,2.0,67,0.00,,,0.00,meteohub,2013-01-23 21:12:00,
2013-01-23 13:17:00,54.3,43.5,30.00,North,0,2.0,2.0,67,0.00,,,0.00,meteohub,2013-01-23 21:17:00,
2013-01-23 13:22:00,54.5,44.2,30.00,West,270,1.0,2.0,68,0.00,,,0.00,meteohub,2013-01-23 21:22:00,
2013-01-23 13:27:00,54.5,44.2,30.01,NE,45,2.0,2.0,68,0.00,,,0.00,meteohub,2013-01-23 21:27:00,
2013-01-23 13:32:00,54.5,44.6,30.01,SE,135,1.0,2.0,69,0.00,,,0.00,meteohub,2013-01-23 21:32:00,
2013-01-23 13:37:00,54.5,44.6,30.00,North,0,2.0,2.0,69,0.00,,,0.00,meteohub,2013-01-23 21:37:00,
2013-01-23 13:42:00,54.5,45.0,29.99,North,0,2.0,2.0,70,0.00,,,0.00,meteohub,2013-01-23 21:42:00,
2013-01-23 13:47:00,54.3,45.1,30.00,South,180,2.0,3.0,71,0.00,,,0.00,meteohub,2013-01-23 21:47:00,
2013-01-23 13:52:00,54.1,45.0,30.00,North,0,0.0,3.0,71,0.00,,,0.00,meteohub,2013-01-23 21:52:00,
2013-01-23 13:57:00,54.1,45.3,30.00,North,0,0.0,3.0,72,0.00,,,0.00,meteohub,2013-01-23 21:57:00,
2013-01-23 14:02:00,54.0,45.5,30.01,South,180,1.0,3.0,73,0.00,,,0.00,meteohub,2013-01-23 22:02:00,
2013-01-23 14:07:00,53.8,45.7,30.01,SE,135,0.0,3.0,74,0.00,,,0.00,meteohub,2013-01-23 22:07:00,
2013-01-23 14:12:00,53.6,45.9,30.01,North,0,1.0,2.0,75,0.01,,,0.01,meteohub,2013-01-23 22:12:00,
2013-01-23 14:17:00,53.2,45.9,30.01,SW,225,1.0,1.0,76,0.04,,,0.02,meteohub,2013-01-23 22:17:00,
2013-01-23 14:22:00,52.9,46.2,30.01,East,90,0.0,2.0,78,0.06,,,0.06,meteohub,2013-01-23 22:22:00,
2013-01-23 14:27:00,52.7,46.4,30.01,East,90,0.0,2.0,79,0.07,,,0.06,meteohub,2013-01-23 22:27:00,
2013-01-23 14:32:00,52.3,46.4,30.01,SE,135,0.0,2.0,80,0.08,,,0.08,meteohub,2013-01-23 22:32:00,
2013-01-23 14:37:00,52.2,46.6,30.00,North,0,1.0,1.0,81,0.08,,,0.08,meteohub,2013-01-23 22:37:00,
2013-01-23 14:43:00,51.8,46.4,30.00,East,90,0.0,2.0,82,0.08,,,0.08,meteohub,2013-01-23 22:43:00,
2013-01-23 14:48:00,51.8,46.8,30.00,NE,45,1.0,2.0,83,0.08,,,0.08,meteohub,2013-01-23 22:48:00,
2013-01-23 14:53:00,51.6,46.6,30.00,East,90,1.0,2.0,83,0.08,,,0.08,meteohub,2013-01-23 22:53:00,
2013-01-23 14:58:00,51.6,46.6,30.00,North,0,1.0,2.0,83,0.09,,,0.09,meteohub,2013-01-23 22:58:00,
2013-01-23 15:03:00,51.6,46.9,30.00,NW,315,0.0,2.0,84,0.09,,,0.09,meteohub,2013-01-23 23:03:00,
2013-01-23 15:08:00,51.4,46.8,30.00,North,0,2.0,2.0,84,0.08,,,0.09,meteohub,2013-01-23 23:08:00,
2013-01-23 15:13:00,51.4,47.1,30.00,NE,45,1.0,2.0,85,0.07,,,0.09,meteohub,2013-01-23 23:13:00,
2013-01-23 15:18:00,51.3,46.9,29.99,NE,45,1.0,2.0,85,0.07,,,0.11,meteohub,2013-01-23 23:18:00,
2013-01-23 15:23:00,51.3,46.9,29.99,NE,45,2.0,2.0,85,0.05,,,0.11,meteohub,2013-01-23 23:23:00,
2013-01-23 15:28:00,51.1,47.1,29.99,North,0,2.0,2.0,86,0.04,,,0.11,meteohub,2013-01-23 23:28:00,
2013-01-23 15:34:00,51.3,47.3,30.00,NE,45,1.0,2.0,86,0.02,,,0.11,meteohub,2013-01-23 23:34:00,
2013-01-23 15:39:00,51.1,47.3,30.00,NE,45,2.0,2.0,87,0.02,,,0.11,meteohub,2013-01-23 23:39:00,
2013-01-23 15:44:00,51.1,47.3,30.01,North,0,3.0,3.0,87,0.02,,,0.11,meteohub,2013-01-23 23:44:00,
2013-01-23 15:49:00,50.9,47.1,30.01,North,0,2.0,3.0,87,0.02,,,0.11,meteohub,2013-01-23 23:49:00,
2013-01-23 15:54:00,50.9,47.1,30.01,NE,45,2.0,3.0,87,0.02,,,0.11,meteohub,2013-01-23 23:54:00,
2013-01-23 15:59:00,50.9,47.1,30.01,North,0,2.0,3.0,87,0.02,,,0.11,meteohub,2013-01-23 23:59:00,
2013-01-23 16:04:00,50.7,46.9,30.02,North,0,2.0,3.0,87,0.01,,,0.11,meteohub,2013-01-24 00:04:00,
2013-01-23 16:09:00,50.7,47.3,30.01,NE,45,4.0,4.0,88,0.01,,,0.01,meteohub,2013-01-24 00:09:00,
2013-01-23 16:14:00,50.7,47.3,30.01,NE,45,3.0,3.0,88,0.02,,,0.01,meteohub,2013-01-24 00:14:00,
2013-01-23 16:19:00,50.5,47.5,30.02,North,0,2.0,4.0,89,0.01,,,0.01,meteohub,2013-01-24 00:19:00,
2013-01-23 16:24:00,50.5,47.5,30.03,NE,45,2.0,4.0,89,0.01,,,0.01,meteohub,2013-01-24 00:24:00,
2013-01-23 16:29:00,50.5,47.5,30.03,NE,45,2.0,4.0,89,0.01,,,0.01,meteohub,2013-01-24 00:29:00,
2013-01-23 16:34:00,50.4,47.3,30.02,North,0,3.0,4.0,89,0.01,,,0.01,meteohub,2013-01-24 00:34:00,
2013-01-23 16:40:00,50.4,47.3,30.03,NE,45,3.0,4.0,89,0.02,,,0.02,meteohub,2013-01-24 00:40:00,
2013-01-23 16:45:00,50.2,47.1,30.03,North,0,0.0,4.0,89,0.02,,,0.02,meteohub,2013-01-24 00:45:00,
2013-01-23 16:50:00,50.2,47.1,30.03,North,0,0.0,4.0,89,0.02,,,0.02,meteohub,2013-01-24 00:50:00,
2013-01-23 16:55:00,50.0,46.9,30.03,NE,45,2.0,3.0,89,0.02,,,0.02,meteohub,2013-01-24 00:55:00,
2013-01-23 17:00:00,50.0,46.9,30.03,NE,45,2.0,3.0,89,0.04,,,0.04,meteohub,2013-01-24 01:00:00,
2013-01-23 17:05:00,50.0,46.9,30.03,NE,45,2.0,2.0,89,0.04,,,0.04,meteohub,2013-01-24 01:05:00,
2013-01-23 17:10:00,49.8,46.8,30.02,NE,45,0.0,3.0,89,0.02,,,0.04,meteohub,2013-01-24 01:10:00,
2013-01-23 17:15:00,49.8,46.8,30.01,North,0,3.0,3.0,89,0.02,,,0.04,meteohub,2013-01-24 01:15:00,
2013-01-23 17:20:00,49.6,46.8,30.02,NE,45,3.0,4.0,90,0.02,,,0.04,meteohub,2013-01-24 01:20:00,
2013-01-23 17:25:00,49.6,46.8,30.02,North,0,2.0,4.0,90,0.02,,,0.04,meteohub,2013-01-24 01:25:00,
2013-01-23 17:30:00,49.6,46.8,30.03,North,0,4.0,4.0,90,0.02,,,0.04,meteohub,2013-01-24 01:30:00,
2013-01-23 17:35:00,49.5,46.6,30.03,NE,45,4.0,4.0,90,0.01,,,0.04,meteohub,2013-01-24 01:35:00,
2013-01-23 17:40:00,49.5,46.6,30.03,NE,45,3.0,4.0,90,0.01,,,0.04,meteohub,2013-01-24 01:40:00,
2013-01-23 17:46:00,49.5,46.6,30.03,North,0,3.0,4.0,90,0.02,,,0.05,meteohub,2013-01-24 01:46:00,
2013-01-23 17:51:00,49.5,46.6,30.02,North,0,4.0,4.0,90,0.02,,,0.05,meteohub,2013-01-24 01:51:00,
2013-01-23 17:56:00,49.3,46.4,30.03,North,0,4.0,4.0,90,0.01,,,0.05,meteohub,2013-01-24 01:56:00,
2013-01-23 18:01:00,49.1,46.6,30.03,North,0,2.0,4.0,91,0.01,,,0.05,meteohub,2013-01-24 02:01:00,
2013-01-23 18:06:00,49.1,46.6,30.03,North,0,2.0,4.0,91,0.01,,,0.05,meteohub,2013-01-24 02:06:00,
2013-01-23 18:11:00,49.1,46.6,30.04,NE,45,2.0,4.0,91,0.01,,,0.05,meteohub,2013-01-24 02:11:00,
2013-01-23 18:16:00,48.9,46.4,30.04,NE,45,4.0,4.0,91,0.01,,,0.05,meteohub,2013-01-24 02:16:00,
2013-01-23 18:21:00,48.9,46.4,30.04,North,0,0.0,4.0,91,0.01,,,0.05,meteohub,2013-01-24 02:21:00,
2013-01-23 18:26:00,48.7,46.2,30.04,North,0,2.0,4.0,91,0.02,,,0.06,meteohub,2013-01-24 02:26:00,
2013-01-23 18:31:00,48.7,46.2,30.04,NE,45,4.0,4.0,91,0.02,,,0.06,meteohub,2013-01-24 02:31:00,
2013-01-23 18:36:00,48.6,46.0,30.04,North,0,3.0,4.0,91,0.02,,,0.06,meteohub,2013-01-24 02:36:00,
2013-01-23 18:41:00,48.6,46.0,30.04,North,0,3.0,4.0,91,0.02,,,0.06,meteohub,2013-01-24 02:41:00,
2013-01-23 18:47:00,48.4,45.9,30.05,NE,45,4.0,4.0,91,0.02,,,0.07,meteohub,2013-01-24 02:47:00,
2013-01-23 18:52:00,48.4,46.2,30.04,NE,45,6.0,6.0,92,0.02,,,0.07,meteohub,2013-01-24 02:52:00,
2013-01-23 18:57:00,48.4,46.2,30.05,North,0,5.0,7.0,92,0.02,,,0.07,meteohub,2013-01-24 02:57:00,
2013-01-23 19:02:00,48.4,46.2,30.04,North,0,3.0,7.0,92,0.02,,,0.07,meteohub,2013-01-24 03:02:00,
2013-01-23 19:07:00,48.4,46.2,30.04,North,0,3.0,7.0,92,0.02,,,0.07,meteohub,2013-01-24 03:07:00,
2013-01-23 19:12:00,48.0,45.9,30.04,North,0,4.0,6.0,92,0.02,,,0.07,meteohub,2013-01-24 03:12:00,
2013-01-23 19:17:00,48.0,46.0,30.04,NE,45,7.0,7.0,93,0.02,,,0.07,meteohub,2013-01-24 03:17:00,
2013-01-23 19:22:00,48.0,46.0,30.04,North,0,5.0,7.0,93,0.01,,,0.07,meteohub,2013-01-24 03:22:00,
2013-01-23 19:27:00,47.8,45.9,30.03,NE,45,5.0,7.0,93,0.01,,,0.07,meteohub,2013-01-24 03:27:00,
2013-01-23 19:32:00,47.8,45.9,30.04,NE,45,6.0,7.0,93,0.01,,,0.07,meteohub,2013-01-24 03:32:00,
2013-01-23 19:37:00,47.8,45.9,30.04,NE,45,4.0,6.0,93,0.01,,,0.07,meteohub,2013-01-24 03:37:00,
2013-01-23 19:42:00,47.7,45.7,30.04,North,0,5.0,7.0,93,0.01,,,0.07,meteohub,2013-01-24 03:42:00,
2013-01-23 19:47:00,47.7,46.0,30.04,NE,45,5.0,7.0,94,0.00,,,0.07,meteohub,2013-01-24 03:47:00,
2013-01-23 19:52:00,47.7,46.0,30.04,NE,45,4.0,8.0,94,0.00,,,0.07,meteohub,2013-01-24 03:52:00,
2013-01-23 19:57:00,47.7,46.0,30.04,North,0,4.0,8.0,94,0.01,,,0.07,meteohub,2013-01-24 03:57:00,
2013-01-23 20:02:00,47.7,46.0,30.04,NW,315,7.0,8.0,94,0.01,,,0.08,meteohub,2013-01-24 04:02:00,
2013-01-23 20:07:00,47.7,46.0,30.03,NW,315,7.0,8.0,94,0.01,,,0.08,meteohub,2013-01-24 04:07:00,
2013-01-23 20:12:00,47.5,45.9,30.03,NE,45,4.0,8.0,94,0.01,,,0.08,meteohub,2013-01-24 04:12:00,
2013-01-23 20:17:00,47.5,45.9,30.03,North,0,5.0,8.0,94,0.01,,,0.08,meteohub,2013-01-24 04:17:00,
2013-01-23 20:22:00,47.5,45.9,30.03,North,0,5.0,8.0,94,0.01,,,0.08,meteohub,2013-01-24 04:22:00,
2013-01-23 20:27:00,47.5,45.9,30.03,North,0,5.0,8.0,94,0.01,,,0.08,meteohub,2013-01-24 04:27:00,
2013-01-23 20:32:00,47.5,45.9,30.04,NE,45,9.0,9.0,94,0.01,,,0.08,meteohub,2013-01-24 04:32:00,
2013-01-23 20:37:00,47.5,45.9,30.04,North,0,6.0,9.0,94,0.01,,,0.08,meteohub,2013-01-24 04:37:00,
2013-01-23 20:42:00,47.7,46.0,30.04,North,0,6.0,9.0,94,0.01,,,0.08,meteohub,2013-01-24 04:42:00,
2013-01-23 20:47:00,47.7,46.0,30.04,North,0,4.0,9.0,94,0.01,,,0.08,meteohub,2013-01-24 04:47:00,
2013-01-23 20:52:00,47.7,46.0,30.05,North,0,3.0,9.0,94,0.01,,,0.08,meteohub,2013-01-24 04:52:00,
2013-01-23 20:57:00,47.7,46.0,30.06,NE,45,2.0,7.0,94,0.00,,,0.08,meteohub,2013-01-24 04:57:00,
2013-01-23 21:01:00,47.7,46.0,30.07,North,0,3.0,7.0,94,0.00,,,0.08,meteohub,2013-01-24 05:01:00,
2013-01-23 21:02:00,47.7,46.0,30.08,North,0,3.0,7.0,94,0.00,,,0.08,meteohub,2013-01-24 05:02:00,
2013-01-23 21:04:00,47.7,46.0,30.09,North,0,3.0,7.0,94,0.00,,,0.08,meteohub,2013-01-24 05:04:00,
2013-01-23 21:09:00,47.7,46.0,30.08,North,0,0.0,5.0,94,0.00,,,0.08,meteohub,2013-01-24 05:09:00,
2013-01-23 21:14:00,47.7,46.0,30.08,North,0,1.0,3.0,94,0.00,,,0.08,meteohub,2013-01-24 05:14:00,
2013-01-23 21:19:00,47.7,46.0,30.09,NE,45,1.0,3.0,94,0.01,,,0.09,meteohub,2013-01-24 05:19:00,
2013-01-23 21:24:00,47.7,46.0,30.09,SE,135,0.0,3.0,94,0.01,,,0.09,meteohub,2013-01-24 05:24:00,
2013-01-23 21:29:00,47.7,46.0,30.09,North,0,2.0,2.0,94,0.01,,,0.09,meteohub,2013-01-24 05:29:00,
2013-01-23 21:34:00,47.7,46.0,30.08,North,0,2.0,2.0,94,0.01,,,0.09,meteohub,2013-01-24 05:34:00,
2013-01-23 21:40:00,47.7,46.0,30.09,North,0,2.0,2.0,94,0.01,,,0.09,meteohub,2013-01-24 05:40:00,
2013-01-23 21:45:00,47.7,46.0,30.08,North,0,2.0,2.0,94,0.01,,,0.09,meteohub,2013-01-24 05:45:00,
2013-01-23 21:50:00,47.7,46.0,30.08,NE,45,2.0,2.0,94,0.01,,,0.09,meteohub,2013-01-24 05:50:00,
2013-01-23 21:55:00,47.7,46.0,30.08,NW,315,2.0,3.0,94,0.01,,,0.09,meteohub,2013-01-24 05:55:00,
2013-01-23 22:00:00,47.7,46.0,30.08,North,0,2.0,3.0,94,0.01,,,0.09,meteohub,2013-01-24 06:00:00,
2013-01-23 22:05:00,47.7,46.0,30.07,North,0,2.0,3.0,94,0.01,,,0.09,meteohub,2013-01-24 06:05:00,
2013-01-23 22:10:00,47.7,46.0,30.07,North,0,4.0,4.0,94,0.01,,,0.09,meteohub,2013-01-24 06:10:00,
2013-01-23 22:15:00,47.7,46.2,30.07,NE,45,4.0,4.0,95,0.00,,,0.09,meteohub,2013-01-24 06:15:00,
2013-01-23 22:20:00,47.7,46.2,30.07,North,0,6.0,6.0,95,0.00,,,0.09,meteohub,2013-01-24 06:20:00,
2013-01-23 22:25:00,47.7,46.2,30.07,North,0,3.0,6.0,95,0.00,,,0.09,meteohub,2013-01-24 06:25:00,
2013-01-23 22:30:00,47.7,46.2,30.06,NE,45,5.0,6.0,95,0.00,,,0.09,meteohub,2013-01-24 06:30:00,
2013-01-23 22:35:00,47.7,46.2,30.06,North,0,4.0,8.0,95,0.01,,,0.11,meteohub,2013-01-24 06:35:00,
2013-01-23 22:41:00,47.7,46.2,30.06,NE,45,7.0,8.0,95,0.01,,,0.11,meteohub,2013-01-24 06:41:00,
2013-01-23 22:46:00,47.7,46.6,30.06,NE,45,7.0,8.0,96,0.01,,,0.11,meteohub,2013-01-24 06:46:00,
2013-01-23 22:51:00,47.5,46.0,30.06,North,0,8.0,8.0,95,0.01,,,0.11,meteohub,2013-01-24 06:51:00,
2013-01-23 22:56:00,47.7,46.6,30.06,North,0,7.0,8.0,96,0.01,,,0.11,meteohub,2013-01-24 06:56:00,
2013-01-23 23:01:00,47.7,46.6,30.06,North,0,4.0,8.0,96,0.01,,,0.11,meteohub,2013-01-24 07:01:00,
2013-01-23 23:06:00,47.7,46.6,30.06,North,0,4.0,8.0,96,0.01,,,0.11,meteohub,2013-01-24 07:06:00,
2013-01-23 23:11:00,47.8,46.8,30.06,East,90,4.0,8.0,96,0.01,,,0.11,meteohub,2013-01-24 07:11:00,
2013-01-23 23:17:00,47.8,46.8,30.06,North,0,7.0,7.0,96,0.01,,,0.11,meteohub,2013-01-24 07:17:00,
2013-01-23 23:22:00,48.0,46.9,30.06,North,0,8.0,8.0,96,0.01,,,0.11,meteohub,2013-01-24 07:22:00,
2013-01-23 23:27:00,48.2,47.1,30.06,East,90,5.0,8.0,96,0.02,,,0.12,meteohub,2013-01-24 07:27:00,
2013-01-23 23:32:00,48.2,47.1,30.05,NE,45,6.0,8.0,96,0.01,,,0.12,meteohub,2013-01-24 07:32:00,
2013-01-23 23:37:00,48.2,47.1,30.06,North,0,8.0,10.0,96,0.01,,,0.12,meteohub,2013-01-24 07:37:00,
2013-01-23 23:42:00,48.4,47.3,30.05,NE,45,4.0,10.0,96,0.01,,,0.12,meteohub,2013-01-24 07:42:00,
2013-01-23 23:47:00,48.4,47.3,30.05,NE,45,4.0,10.0,96,0.01,,,0.12,meteohub,2013-01-24 07:47:00,
2013-01-23 23:52:00,48.6,47.5,30.06,NE,45,7.0,8.0,96,0.01,,,0.12,meteohub,2013-01-24 07:52:00,
2013-01-23 23:58:00,48.7,47.7,30.05,North,0,5.0,10.0,96,0.01,,,0.12,meteohub,2013-01-24 07:58:00,